This is the latest recevied weather packets stored in our database for station/object NR0A-4. If no packets are shown the sender has not sent any weather packets the latest 10 day(s).
| Time | Temp. | Humidity | Pressure | Rain* | Wind** | Luminosity | Snow |
|---|---|---|---|---|---|---|---|
| 1787944513 | 28.33° C | 58% | 1017 hPa | 0 mm | - | 729 W/m² | - |
| 1787944205 | 28.33° C | 57% | 1017 hPa | 0 mm | - | 772 W/m² | - |
| 1787943904 | 28.33° C | 58% | 1017.1 hPa | 0 mm | - | 763 W/m² | - |
| 1787943604 | 27.78° C | 60% | 1017.3 hPa | 0 mm | - | 768 W/m² | - |
| 1787943305 | 27.78° C | 59% | 1017.2 hPa | 0 mm | - | 766 W/m² | - |
| 1787943004 | 27.78° C | 58% | 1017.2 hPa | 0 mm | - | 773 W/m² | - |
| 1787942704 | 27.78° C | 59% | 1017.3 hPa | 0 mm | - | 772 W/m² | - |
| 1787942404 | 27.78° C | 61% | 1017.3 hPa | 0 mm | - | 777 W/m² | - |
| 1787942104 | 27.22° C | 59% | 1017.4 hPa | 0 mm | - | 775 W/m² | - |
| 1787941804 | 27.22° C | 59% | 1017.5 hPa | 0 mm | - | 786 W/m² | - |
| 1787941504 | 27.22° C | 59% | 1017.6 hPa | 0 mm | - | 677 W/m² | - |
| 1787941204 | 27.22° C | 63% | 1017.7 hPa | 0 mm | - | 789 W/m² | - |
| 1787940914 | 26.67° C | 61% | 1017.8 hPa | 0 mm | - | 784 W/m² | - |
| 1787940604 | 26.67° C | 62% | 1017.9 hPa | 0 mm | - | 784 W/m² | - |
| 1787940305 | 26.67° C | 62% | 1018 hPa | 0 mm | - | 835 W/m² | - |
| 1787940005 | 26.67° C | 62% | 1018.2 hPa | 0 mm | - | 798 W/m² | - |
| 1787939704 | 26.67° C | 59% | 1018.4 hPa | 0 mm | - | 788 W/m² | - |
| 1787939404 | 26.67° C | 63% | 1018.4 hPa | 0 mm | - | 780 W/m² | - |
| 1787939104 | 26.67° C | 62% | 1018.5 hPa | 0 mm | - | 766 W/m² | - |
| 1787938804 | 26.67° C | 62% | 1018.6 hPa | 0 mm | - | 754 W/m² | - |
| 1787938505 | 26.67° C | 62% | 1018.7 hPa | 0 mm | - | 752 W/m² | - |
| 1787938204 | 26.67° C | 61% | 1018.7 hPa | 0 mm | - | 747 W/m² | - |
| 1787937905 | 26.67° C | 61% | 1018.8 hPa | 0 mm | - | 742 W/m² | - |
| 1787937605 | 26.67° C | 62% | 1018.8 hPa | 0 mm | - | 726 W/m² | - |
| 1787937304 | 26.67° C | 63% | 1018.8 hPa | 0 mm | - | 717 W/m² | - |
* Rain latest hour (hover to see other rain measurements)
** Current wind speed in m/s (hover to see current wind gust speed)